Location: Dillon
(41.1766°N, 107.0923°W)
Time: 14:34:19
(UTC+00:00)

DIWATA 2B (PO-101) - Pass Details

Date: 05 July 2022
Orbit: 583 x 599 km, 98.0° (Epoch: 19 August)

Event Time Altitude Azimuth Distance (km) Brightness Sun altitude
Exits shadow 08:38:46 33° 119° (ESE) 1,014 ? -23.0°
Maximum altitude 08:40:06 45° 72° (ENE) 826 ? -22.9°
Drops below altitude 10° 08:44:08 10° 0° (N) 1,948 ? -22.6°
Sets 08:46:22 0° 354° (N) 2,855 ? -22.5°
